Location: Vihti�l�
(61.3833°N, 23.0667°E)
Time: 04:37:01
(UTC+00:00)

NOSS 3-1 (A) - Pass Details

Date: 29 November 2020
Orbit: 744 x 1469 km, 63.4° (Epoch: 25 November)

Event Time Altitude Azimuth Distance (km) Brightness Sun altitude
Exits shadow 04:08:34 32° 289° (WNW) 1,716 4.2 -19.7°
Maximum altitude 04:12:00 81° 13° (NNE) 1,145 3.8 -19.3°
Drops below altitude 10° 04:19:56 10° 102° (ESE) 3,285 7.5 -18.4°
Sets 04:22:59 0° 104° (ESE) 4,347 8.6 -18.0°
